Green Bay, WI

12:28 AM CDT on April 27, 2018 (GMT -0500)
Austin Straubel International

Weather History for KGRB - December, 2013

Change the Weather History Date:

Tuesday, December 3, 2013

  Actual Average Record
Temperature  
Mean Temperature 35 °F 26 °F  
Max Temperature 37 °F 33 °F 62 °F (1998)
Min Temperature 32 °F 19 °F -13 °F (1940)
Degree Days  
Heating Degree Days 30 39  
Month to date heating degree days 93 116  
Since 1 July heating degree days 1704 1856  
Cooling Degree Days 0 0  
Month to date cooling degree days 0 0  
Year to date cooling degree days 535 398  
Moisture  
Dew Point 31 °F    
Average Humidity 85    
Maximum Humidity 100    
Minimum Humidity 70    
Precipitation  
Precipitation 0.36 in 0.06 in 0.92 in (1990)
Month to date precipitation 0.36 0.18  
Year to date precipitation 33.63 28.19  
Snow  
Snow 3.90 in 0.40 in 14.40 in (1990)
Month to date snowfall 3.9 1.1  
Since 1 July snowfall 5.1 5.3  
Snow Depth 3.00 in    
Sea Level Pressure  
Sea Level Pressure 29.82 in    
Wind  
Wind Speed 12 mph (ENE)    
Max Wind Speed 20 mph    
Max Gust Speed 25 mph    
Visibility 3 miles    
Events Rain , Snow    
T = Trace of Precipitation, MM = Missing Value Source: NWS Daily Summary

Daily Weather History Graph

Daily Weather History Graph

Search for Another Location

Airport or City:

Astronomy

Dec. 03, 2013 Rise Set
Actual Time 7:11 AM CST 4:13 PM CST
Civil Twilight 6:38 AM CST 4:46 PM CST
Nautical Twilight 6:01 AM CST 5:22 PM CST
Astronomical Twilight 5:26 AM CST 5:57 PM CST
Moon 7:39 AM CST (12/3) 5:17 PM CST (12/3)
Length of Visible Light 10h 07m
Length of Day
9h 02m
New Moon, 1% of the Moon is Illuminated
Dec 3
New Moon
Dec 9
First Quarter
Dec 17
Full
Dec 25
Last Quarter
Jan 1
New

Hourly Weather History & Observations

Time (CST) Temp. Windchill Dew Point Humidity Pressure Visibility Wind Dir Wind Speed Gust Speed Precip Events Conditions
12:53 AM 37.0 °F 28.9 °F 28.9 °F 73% 29.83 in 7.0 mi SE 12.7 mph - 0.00 in Snow Light Snow
1:10 AM 35.1 °F 25.9 °F 30.0 °F 82% 29.81 in 2.5 mi ESE 13.8 mph 21.9 mph 0.00 in Snow Light Snow
1:33 AM 34.0 °F 24.2 °F 30.0 °F 85% 29.80 in 1.2 mi ESE 15.0 mph 25.3 mph 0.00 in Snow Light Snow
1:53 AM 33.1 °F 23.0 °F 30.9 °F 92% 29.83 in 1.2 mi ESE 15.0 mph - 0.01 in Snow Light Snow
2:03 AM 33.1 °F 24.4 °F 32.0 °F 96% 29.80 in 1.2 mi ESE 11.5 mph - 0.00 in Snow Light Snow
2:09 AM 33.1 °F 24.9 °F 32.0 °F 96% 29.80 in 0.8 mi East 10.4 mph - 0.01 in Snow Light Snow
2:15 AM 33.1 °F 24.9 °F 32.0 °F 96% 29.80 in 1.0 mi East 10.4 mph - 0.01 in Snow Light Snow
2:51 AM 33.8 °F 25.8 °F 32.0 °F 93% 29.80 in 2.0 mi East 10.4 mph - 0.03 in Snow Light Snow
2:53 AM 33.1 °F 26.1 °F 32.0 °F 96% 29.83 in 2.5 mi ESE 8.1 mph - 0.03 in Snow Light Snow
3:41 AM 33.1 °F 23.4 °F 32.0 °F 96% 29.77 in 1.5 mi ESE 13.8 mph - 0.02 in Snow Light Snow
3:48 AM 33.8 °F 24.8 °F 30.2 °F 87% 29.78 in 1.8 mi East 12.7 mph - 0.03 in Snow Light Snow
3:53 AM 33.1 °F 23.9 °F 30.9 °F 92% 29.81 in 2.0 mi ESE 12.7 mph - 0.03 in Snow Light Snow
4:15 AM 33.1 °F 24.4 °F 30.9 °F 92% 29.79 in 4.0 mi East 11.5 mph - 0.01 in Snow Light Snow
4:34 AM 33.1 °F 26.1 °F 30.9 °F 92% 29.81 in 6.0 mi ESE 8.1 mph - 0.01 in   Overcast
4:53 AM 33.1 °F 24.9 °F 30.9 °F 92% 29.83 in 2.5 mi East 10.4 mph - 0.01 in Rain Light Freezing Rain
5:04 AM 33.1 °F 26.1 °F 30.9 °F 92% 29.81 in 2.0 mi ESE 8.1 mph - 0.01 in Snow Light Snow
5:43 AM 33.1 °F 24.4 °F 30.9 °F 92% 29.79 in 3.0 mi East 11.5 mph - 0.01 in Rain Light Freezing Rain
5:51 AM 33.8 °F 26.4 °F 30.2 °F 87% 29.79 in 3.0 mi East 9.2 mph - 0.01 in   Overcast
5:53 AM 33.1 °F 25.5 °F 30.9 °F 92% 29.82 in 4.0 mi East 9.2 mph - 0.01 in   Overcast
6:53 AM 33.1 °F 25.5 °F 30.9 °F 92% 29.84 in 3.0 mi East 9.2 mph - 0.00 in Rain Light Freezing Rain
7:07 AM 33.1 °F 24.9 °F 30.9 °F 92% 29.81 in 2.5 mi East 10.4 mph - 0.01 in Rain Light Freezing Rain
7:19 AM 33.1 °F 23.9 °F 30.9 °F 92% 29.81 in 3.0 mi East 12.7 mph - 0.01 in Rain Light Freezing Rain
7:41 AM 33.1 °F 23.4 °F 30.9 °F 92% 29.81 in 4.0 mi East 13.8 mph - 0.01 in Snow Light Snow
7:53 AM 32.0 °F 22.1 °F 30.9 °F 96% 29.83 in 3.0 mi East 13.8 mph - 0.01 in   Overcast
8:13 AM 33.1 °F 23.0 °F 30.9 °F 92% 29.81 in 2.5 mi East 15.0 mph - N/A   Overcast
8:21 AM 33.1 °F 23.4 °F 30.9 °F 92% 29.81 in 3.0 mi East 13.8 mph - N/A   Overcast
8:35 AM 33.1 °F 24.4 °F 30.9 °F 92% 29.82 in 2.5 mi East 11.5 mph - 0.00 in Snow Light Snow
8:53 AM 33.1 °F 24.4 °F 30.9 °F 92% 29.85 in 2.5 mi East 11.5 mph - 0.00 in Snow Light Snow
9:05 AM 33.1 °F 23.0 °F 30.9 °F 92% 29.82 in 3.0 mi East 15.0 mph - 0.00 in Snow Light Snow
9:12 AM 33.1 °F 23.0 °F 30.9 °F 92% 29.82 in 2.5 mi East 15.0 mph - 0.01 in Snow Light Snow
9:32 AM 33.1 °F 23.0 °F 30.9 °F 92% 29.82 in 3.0 mi East 15.0 mph - 0.01 in Snow Light Snow
9:45 AM 33.1 °F 23.4 °F 30.9 °F 92% 29.82 in 2.5 mi East 13.8 mph - 0.01 in Snow Light Snow
9:53 AM 33.1 °F 24.9 °F 30.9 °F 92% 29.85 in 2.5 mi East 10.4 mph - 0.01 in Snow Light Snow
10:53 AM 33.1 °F 24.4 °F 30.9 °F 92% 29.86 in 2.5 mi East 11.5 mph - 0.02 in Snow Light Snow
11:53 AM 33.1 °F 24.9 °F 30.9 °F 92% 29.85 in 2.5 mi East 10.4 mph - 0.01 in Snow Light Snow
12:53 PM 33.1 °F 25.5 °F 32.0 °F 96% 29.83 in 2.0 mi ENE 9.2 mph - 0.02 in Snow Light Snow
1:06 PM 33.1 °F 24.9 °F 32.0 °F 96% 29.81 in 1.8 mi ENE 10.4 mph - 0.00 in Snow Light Snow
1:18 PM 33.1 °F 24.4 °F 32.0 °F 96% 29.81 in 2.0 mi NE 11.5 mph - 0.00 in   Overcast
1:28 PM 33.1 °F 23.4 °F 32.0 °F 96% 29.80 in 1.8 mi ENE 13.8 mph - 0.00 in   Overcast
1:53 PM 33.1 °F 23.4 °F 32.0 °F 96% 29.83 in 1.8 mi ENE 13.8 mph - 0.00 in   Overcast
2:53 PM 33.1 °F 23.4 °F 30.9 °F 92% 29.82 in 1.8 mi ENE 13.8 mph - N/A   Overcast
3:53 PM 33.1 °F 23.4 °F 30.9 °F 92% 29.82 in 1.2 mi ENE 13.8 mph - 0.00 in Snow Light Snow
4:53 PM 32.0 °F 22.1 °F 30.9 °F 96% 29.82 in 1.2 mi NE 13.8 mph - 0.04 in Snow Light Snow
5:05 PM 32.0 °F 21.2 °F 30.9 °F 96% 29.79 in 0.8 mi NE 16.1 mph - 0.01 in Snow Light Snow
5:53 PM 32.0 °F 21.6 °F 32.0 °F 100% 29.82 in 0.8 mi ENE 15.0 mph - 0.12 in Snow Light Snow
6:03 PM 32.0 °F 22.1 °F 32.0 °F 100% 29.80 in 1.0 mi NE 13.8 mph - 0.00 in Snow Light Snow
6:33 PM 32.0 °F 22.5 °F 32.0 °F 100% 29.82 in 1.0 mi NE 12.7 mph - 0.04 in Snow Light Snow
6:53 PM 32.0 °F 22.1 °F 32.0 °F 100% 29.84 in 1.5 mi NE 13.8 mph - 0.06 in Snow Light Snow
7:12 PM 32.0 °F 22.5 °F 32.0 °F 100% 29.81 in 2.5 mi NE 12.7 mph - 0.01 in Snow Light Snow
7:26 PM 32.0 °F 21.6 °F 32.0 °F 100% 29.81 in 4.0 mi NE 15.0 mph - 0.01 in Snow Light Snow
7:53 PM 33.1 °F 24.9 °F 32.0 °F 96% 29.85 in 5.0 mi NE 10.4 mph - 0.01 in   Overcast
8:15 PM 33.1 °F 24.4 °F 32.0 °F 96% 29.82 in 2.5 mi NE 11.5 mph - 0.00 in Rain Light Freezing Rain
8:23 PM 33.1 °F 24.4 °F 32.0 °F 96% 29.82 in 3.0 mi NE 11.5 mph - 0.00 in   Overcast
8:45 PM 33.1 °F 23.9 °F 32.0 °F 96% 29.82 in 5.0 mi NE 12.7 mph - 0.01 in   Overcast
8:53 PM 33.1 °F 23.9 °F 32.0 °F 96% 29.85 in 4.0 mi NE 12.7 mph - 0.01 in   Overcast
9:53 PM 33.1 °F 24.4 °F 32.0 °F 96% 29.85 in 5.0 mi NE 11.5 mph - N/A   Overcast
10:53 PM 33.1 °F 23.9 °F 32.0 °F 96% 29.83 in 6.0 mi NE 12.7 mph - N/A   Overcast
11:16 PM 33.1 °F 24.4 °F 32.0 °F 96% 29.80 in 6.0 mi NE 11.5 mph - N/A   Overcast
11:42 PM 33.1 °F 23.9 °F 32.0 °F 96% 29.80 in 5.0 mi NE 12.7 mph - N/A   Overcast
11:53 PM 33.1 °F 23.9 °F 32.0 °F 96% 29.83 in 5.0 mi NE 12.7 mph - N/A   Overcast